When you browse on this site, cookies collect data to enhance your experience and personalize the content and advertising you see.
Visit our Privacy Policy to learn more. By continuing to use the site, you agree to this use of cookies and data.
  • In Slovakia
  • List of Countries
  • For 7 days
  • Water Temperature
  • Satellite Maps
  • Weather Map
  • Weather Widgets
  • user-avatar
    Login

    Hourly Weather Encamp

    Today, 19 February, Tuesday

    Time Temperature Precipitation Wind Pressure Humidity
    00:00 -1°C° 0 mm 1 mps 622 mmHg 60%
    01:00 -1°C° 0 mm 1 mps 622 mmHg 58%
    02:00 -1°C° 0 mm 1 mps 622 mmHg 56%
    03:00 -1°C° 0 mm 1 mps 622 mmHg 54%
    04:00 -1°C° 0 mm 1 mps 622 mmHg 52%
    05:00 -1°C° 0 mm 1 mps 622 mmHg 50%
    06:00 -1°C° 0 mm 1 mps 622 mmHg 48%
    07:00 +1°C° 0 mm 1 mps 623 mmHg 45%
    08:00 +2°C° 0 mm 0 mps 624 mmHg 42%
    09:00 +4°C° 0 mm 0 mps 625 mmHg 40%
    10:00 +5°C° 0 mm 0 mps 625 mmHg 40%
    11:00 +6°C° 0 mm 0 mps 625 mmHg 41%
    12:00 +8°C° 0 mm 1 mps 626 mmHg 41%
    13:00 +8°C° 0 mm 1 mps 625 mmHg 44%
    14:00 +7°C° 0 mm 1 mps 625 mmHg 47%
    15:00 +7°C° 0 mm 1 mps 625 mmHg 50%
    16:00 +5°C° 0 mm 1 mps 624 mmHg 60%
    17:00 +3°C° 0 mm 1 mps 623 mmHg 70%
    18:00 0°C° 0 mm 0 mps 622 mmHg 80%
    19:00 0°C° 0 mm 0 mps 623 mmHg 79%
    20:00 0°C° 0 mm 1 mps 623 mmHg 79%
    21:00 0°C° 0 mm 1 mps 623 mmHg 78%
    22:00 0°C° 0 mm 1 mps 623 mmHg 76%
    23:00 0°C° 0 mm 1 mps 623 mmHg 75%

    Tomorrow, 20 February, Wednesday

    Time Temperature Precipitation Wind Pressure Humidity
    00:00 0°C° 0 mm 1 mps 623 mmHg 73%
    01:00 0°C° 0 mm 1 mps 623 mmHg 72%
    02:00 0°C° 0 mm 1 mps 623 mmHg 71%
    03:00 0°C° 0 mm 1 mps 623 mmHg 70%
    04:00 0°C° 0 mm 1 mps 623 mmHg 69%
    05:00 0°C° 0 mm 1 mps 623 mmHg 68%
    06:00 0°C° 0 mm 1 mps 623 mmHg 67%
    07:00 +1°C° 0 mm 0 mps 624 mmHg 61%
    08:00 +3°C° 0 mm 0 mps 625 mmHg 56%
    09:00 +4°C° 0 mm 0 mps 626 mmHg 50%
    10:00 +6°C° 0 mm 0 mps 627 mmHg 48%
    11:00 +8°C° 0 mm 1 mps 627 mmHg 45%
    12:00 +9°C° 0 mm 1 mps 628 mmHg 42%
    13:00 +9°C° 0 mm 1 mps 628 mmHg 44%
    14:00 +8°C° 0 mm 1 mps 627 mmHg 46%
    15:00 +8°C° 0 mm 1 mps 627 mmHg 48%
    16:00 +6°C° 0 mm 1 mps 626 mmHg 59%
    17:00 +4°C° 0 mm 1 mps 626 mmHg 69%
    18:00 +1°C° 0 mm 0 mps 625 mmHg 80%
    19:00 +2°C° 0 mm 1 mps 625 mmHg 80%
    20:00 +1°C° 0 mm 1 mps 626 mmHg 80%
    21:00 +1°C° 0 mm 1 mps 626 mmHg 80%
    22:00 +1°C° 0 mm 1 mps 626 mmHg 78%
    23:00 +1°C° 0 mm 1 mps 626 mmHg 77%

    Day after tomorrow, 21 February, Thursday

    Time Temperature Precipitation Wind Pressure Humidity
    00:00 +1°C° 0 mm 1 mps 626 mmHg 75%
    01:00 +1°C° 0 mm 1 mps 626 mmHg 74%
    02:00 +1°C° 0 mm 1 mps 626 mmHg 72%
    03:00 +1°C° 0 mm 1 mps 627 mmHg 71%
    04:00 +1°C° 0 mm 1 mps 627 mmHg 69%
    05:00 +1°C° 0 mm 1 mps 627 mmHg 68%
    06:00 +1°C° 0 mm 1 mps 627 mmHg 66%
    07:00 +3°C° 0 mm 1 mps 628 mmHg 59%
    08:00 +4°C° 0 mm 0 mps 629 mmHg 53%
    09:00 +6°C° 0 mm 0 mps 630 mmHg 46%
    10:00 +7°C° 0 mm 0 mps 631 mmHg 42%
    11:00 +9°C° 0 mm 1 mps 631 mmHg 38%
    12:00 +10°C° 0 mm 1 mps 632 mmHg 34%
    13:00 +10°C° 0 mm 1 mps 632 mmHg 37%
    14:00 +10°C° 0 mm 1 mps 631 mmHg 39%
    15:00 +10°C° 0 mm 1 mps 631 mmHg 42%
    16:00 +8°C° 0 mm 1 mps 630 mmHg 52%
    17:00 +4°C° 0 mm 0 mps 630 mmHg 62%
    18:00 +2°C° 0 mm 0 mps 629 mmHg 72%
    19:00 +3°C° 0 mm 1 mps 629 mmHg 71%
    20:00 +3°C° 0 mm 1 mps 629 mmHg 70%
    21:00 +3°C° 0 mm 1 mps 630 mmHg 69%
    22:00 +3°C° 0 mm 1 mps 630 mmHg 65%
    23:00 +2°C° 0 mm 1 mps 630 mmHg 62%

    22 February, Friday

    Time Temperature Precipitation Wind Pressure Humidity
    00:00 +2°C° 0 mm 1 mps 630 mmHg 59%
    01:00 +2°C° 0 mm 1 mps 630 mmHg 51%
    02:00 +2°C° 0 mm 1 mps 630 mmHg 42%
    03:00 +2°C° 0 mm 1 mps 630 mmHg 34%
    04:00 +1°C° 0 mm 2 mps 629 mmHg 30%
    05:00 +1°C° 0 mm 2 mps 629 mmHg 26%
    06:00 +1°C° 0 mm 2 mps 629 mmHg 21%
    07:00 +4°C° 0 mm 1 mps 630 mmHg 22%
    08:00 +6°C° 0 mm 1 mps 631 mmHg 23%
    09:00 +8°C° 0 mm 1 mps 632 mmHg 24%
    10:00 +10°C° 0 mm 1 mps 632 mmHg 23%
    11:00 +12°C° 0 mm 1 mps 633 mmHg 22%
    12:00 +14°C° 0 mm 1 mps 633 mmHg 21%
    13:00 +13°C° 0 mm 1 mps 633 mmHg 25%
    14:00 +13°C° 0 mm 1 mps 632 mmHg 29%
    15:00 +13°C° 0 mm 1 mps 632 mmHg 34%
    16:00 +10°C° 0 mm 1 mps 631 mmHg 40%
    17:00 +8°C° 0 mm 1 mps 630 mmHg 47%
    18:00 +5°C° 0 mm 1 mps 628 mmHg 54%
    19:00 +5°C° 0 mm 1 mps 628 mmHg 48%
    20:00 +4°C° 0 mm 2 mps 629 mmHg 42%
    21:00 +3°C° 0 mm 2 mps 629 mmHg 37%
    22:00 +5°C° 0 mm 1 mps 628 mmHg 32%
    23:00 +5°C° 0 mm 1 mps 628 mmHg 27%

    23 February, Saturday

    Time Temperature Precipitation Wind Pressure Humidity
    00:00 +5°C° 0 mm 1 mps 628 mmHg 22%
    01:00 +5°C° 0 mm 1 mps 628 mmHg 21%
    02:00 +5°C° 0 mm 1 mps 628 mmHg 20%
    03:00 +5°C° 0 mm 1 mps 628 mmHg 19%
    04:00 +5°C° 0 mm 1 mps 628 mmHg 20%
    05:00 +5°C° 0 mm 1 mps 628 mmHg 20%
    06:00 +5°C° 0 mm 1 mps 628 mmHg 20%
    07:00 +7°C° 0 mm 1 mps 630 mmHg 22%
    08:00 +9°C° 0 mm 1 mps 631 mmHg 24%
    09:00 +10°C° 0 mm 0 mps 632 mmHg 26%
    10:00 +13°C° 0 mm 1 mps 632 mmHg 26%
    11:00 +14°C° 0 mm 1 mps 633 mmHg 25%
    12:00 +16°C° 0 mm 1 mps 634 mmHg 25%
    13:00 +15°C° 0 mm 1 mps 633 mmHg 28%
    14:00 +15°C° 0 mm 1 mps 633 mmHg 31%
    15:00 +15°C° 0 mm 1 mps 633 mmHg 34%
    16:00 +12°C° 0 mm 1 mps 632 mmHg 44%
    17:00 +9°C° 0 mm 1 mps 631 mmHg 54%
    18:00 +6°C° 0 mm 0 mps 630 mmHg 63%
    19:00 +6°C° 0 mm 1 mps 630 mmHg 59%
    20:00 +6°C° 0 mm 1 mps 630 mmHg 55%
    21:00 +6°C° 0 mm 1 mps 630 mmHg 51%
    22:00 +5°C° 0 mm 1 mps 630 mmHg 43%
    23:00 +4°C° 0 mm 2 mps 630 mmHg 35%

    24 February, Sunday

    Time Temperature Precipitation Wind Pressure Humidity
    00:00 +4°C° 0 mm 2 mps 629 mmHg 28%
    01:00 +4°C° 0 mm 2 mps 629 mmHg 27%
    02:00 +4°C° 0 mm 2 mps 629 mmHg 27%
    03:00 +3°C° 0 mm 2 mps 629 mmHg 27%
    04:00 +3°C° 0 mm 2 mps 629 mmHg 30%
    05:00 +3°C° 0 mm 2 mps 629 mmHg 34%
    06:00 +3°C° 0 mm 2 mps 629 mmHg 38%
    07:00 +5°C° 0 mm 2 mps 630 mmHg 38%
    08:00 +7°C° 0 mm 2 mps 631 mmHg 38%
    09:00 +10°C° 0 mm 1 mps 632 mmHg 38%
    10:00 +11°C° 0 mm 1 mps 632 mmHg 35%
    11:00 +13°C° 0 mm 1 mps 632 mmHg 32%
    12:00 +14°C° 0 mm 1 mps 633 mmHg 29%
    13:00 +14°C° 0 mm 1 mps 632 mmHg 32%
    14:00 +13°C° 0 mm 1 mps 632 mmHg 35%
    15:00 +13°C° 0 mm 2 mps 632 mmHg 38%
    16:00 +10°C° 0 mm 1 mps 631 mmHg 50%
    17:00 +8°C° 0 mm 1 mps 630 mmHg 61%
    18:00 +5°C° 0 mm 1 mps 629 mmHg 72%
    19:00 +5°C° 0 mm 1 mps 629 mmHg 73%
    20:00 +4°C° 0 mm 1 mps 629 mmHg 74%
    21:00 +4°C° 0 mm 1 mps 629 mmHg 75%
    22:00 +3°C° 0 mm 1 mps 629 mmHg 73%
    23:00 +3°C° 0 mm 1 mps 630 mmHg 71%
    Show more